Total_Precipitation_Accumulation
1.03 1.09 1.14 1.14 1.16 1.22 1.26 1.33 1.42 1.38 1.26 1.07 1.01 0.96 0.93 0.91 1.00 0.86 0.86 0.82 0.80 0.87 0.90 0.96 1.03 1.16 1.21 1.10 0.99 0.90 0.87 0.90 0.97 1.06 1.22 1.41 1.58 1.73
0.84 0.83 0.84 0.84 0.89 0.92 1.00 1.09 1.19 1.27 1.24 1.04 0.95 0.98 0.96 0.88 1.03 0.94 0.90 0.88 0.85 1.06 1.20 1.15 1.12 1.28 1.43 1.37 1.19 1.05 0.98 0.96 0.95 0.97 1.05 1.18 1.33 1.49
0.61 0.63 0.67 0.69 0.73 0.75 0.78 0.91 1.09 1.21 1.28 1.09 0.95 0.97 1.01 1.00 1.05 1.00 0.92 0.89 1.00 1.40 1.63 1.81 1.56 1.46 1.55 1.50 1.37 1.17 1.04 0.99 1.01 1.05 1.11 1.19 1.22 1.25
0.52 0.56 0.58 0.60 0.62 0.67 0.72 0.80 0.95 1.13 1.31 1.28 1.08 1.06 1.06 1.05 1.12 1.11 0.97 0.84 0.90 1.34 1.67 1.99 1.96 1.76 1.77 1.61 1.42 1.19 1.06 0.99 1.01 1.06 1.10 1.12 1.17 1.22
0.48 0.53 0.57 0.65 0.68 0.69 0.75 0.79 0.88 1.00 1.21 1.32 1.23 1.19 1.21 1.22 1.33 1.24 1.08 1.03 0.85 1.09 1.52 1.86 2.05 2.12 2.21 2.05 1.74 1.37 1.10 0.95 0.90 0.92 0.96 0.99 1.00 1.00
0.43 0.51 0.57 0.68 0.75 0.78 0.77 0.80 0.86 0.96 1.10 1.27 1.30 1.29 1.32 1.35 1.40 1.38 1.22 1.08 0.95 0.93 1.37 1.86 2.22 2.26 2.44 2.55 2.23 1.73 1.29 1.01 0.87 0.80 0.74 0.72 0.71 0.71
0.47 0.49 0.53 0.64 0.73 0.70 0.66 0.69 0.81 1.00 1.08 1.23 1.30 1.29 1.25 1.34 1.33 1.18 1.10 1.01 0.90 0.87 1.07 1.48 2.16 2.52 2.59 2.67 2.55 2.03 1.53 1.18 0.94 0.81 0.72 0.67 0.66 0.64
0.51 0.52 0.50 0.52 0.51 0.52 0.58 0.64 0.74 0.95 1.24 1.42 1.38 1.31 1.18 1.16 1.17 1.12 1.11 1.08 1.03 0.82 0.81 1.12 1.68 2.41 2.67 2.67 2.62 2.04 1.50 1.17 0.99 0.88 0.80 0.73 0.70 0.68
0.56 0.56 0.46 0.40 0.48 0.53 0.57 0.62 0.73 0.87 1.13 1.46 1.55 1.32 1.23 1.18 1.21 1.21 1.23 1.26 1.15 0.85 0.84 1.12 1.51 2.17 2.37 2.40 2.30 1.74 1.32 1.06 0.93 0.85 0.81 0.77 0.72 0.71
0.52 0.53 0.56 0.54 0.50 0.52 0.57 0.68 0.82 0.95 1.05 1.14 1.43 1.27 1.06 1.04 1.09 1.12 1.19 1.21 1.12 0.92 0.88 1.16 1.49 1.93 1.93 2.01 1.95 1.53 1.21 1.01 0.89 0.79 0.75 0.72 0.68 0.68
0.46 0.45 0.45 0.48 0.51 0.61 0.75 0.96 1.08 1.20 1.16 1.30 1.45 1.40 1.25 1.15 1.02 1.02 1.20 1.23 1.18 1.03 0.92 1.09 1.36 1.50 1.60 1.69 1.56 1.40 1.17 1.00 0.88 0.79 0.72 0.67 0.61 0.63
0.49 0.50 0.45 0.42 0.52 0.68 0.92 1.19 1.31 1.38 1.24 1.34 1.57 1.61 1.43 1.38 1.33 1.20 1.26 1.25 1.18 1.16 0.94 0.96 1.15 1.17 1.42 1.47 1.34 1.22 1.15 1.13 1.01 0.89 0.79 0.66 0.54 0.52
0.49 0.57 0.56 0.50 0.58 0.77 0.97 1.16 1.32 1.34 1.36 1.40 1.41 1.43 1.49 1.48 1.40 1.29 1.22 1.17 1.13 1.09 0.85 0.86 1.04 1.07 1.20 1.31 1.31 1.28 1.20 1.16 1.06 1.05 1.03 0.86 0.68 0.58
0.53 0.56 0.58 0.57 0.62 0.82 0.98 1.22 1.42 1.49 1.45 1.44 1.28 1.22 1.17 1.17 1.17 1.08 0.98 0.89 0.87 0.86 0.78 0.79 0.99 1.12 1.07 1.06 1.28 1.34 1.33 1.34 1.23 1.16 1.14 1.05 0.90 0.83
0.41 0.48 0.53 0.57 0.74 1.04 1.21 1.37 1.53 1.61 1.60 1.44 1.24 1.14 0.99 0.90 0.89 0.91 0.87 0.78 0.71 0.62 0.55 0.63 0.84 1.00 1.01 1.03 1.23 1.32 1.40 1.55 1.46 1.36 1.22 1.11 1.04 0.93
0.40 0.53 0.63 0.70 0.90 1.21 1.40 1.57 1.61 1.51 1.34 1.25 1.13 1.05 0.89 0.81 0.81 0.74 0.71 0.68 0.70 0.69 0.57 0.53 0.65 0.81 0.93 0.93 1.03 1.17 1.25 1.58 1.58 1.35 1.23 1.19 1.09 0.97
0.36 0.56 0.72 0.85 1.06 1.27 1.44 1.48 1.45 1.34 1.23 1.04 0.94 0.96 0.93 0.84 0.77 0.65 0.59 0.56 0.62 0.66 0.63 0.56 0.57 0.61 0.63 0.69 0.86 1.00 1.11 1.33 1.39 1.18 1.03 1.08 1.12 0.99
0.38 0.58 0.71 0.81 1.00 1.20 1.34 1.31 1.20 1.13 1.03 0.90 0.83 0.79 0.79 0.75 0.71 0.60 0.51 0.51 0.58 0.55 0.50 0.47 0.48 0.51 0.51 0.55 0.70 0.81 0.90 1.08 1.10 0.93 0.74 0.80 1.06 1.08
0.39 0.57 0.68 0.78 0.95 1.09 1.14 1.13 1.09 0.99 0.89 0.82 0.78 0.71 0.65 0.61 0.55 0.49 0.45 0.49 0.49 0.46 0.40 0.35 0.35 0.41 0.50 0.68 0.76 0.78 0.81 0.87 0.83 0.76 0.69 0.69 0.92 1.06
0.43 0.59 0.70 0.75 0.81 0.88 0.94 1.00 1.01 0.93 0.81 0.76 0.75 0.71 0.64 0.56 0.48 0.44 0.43 0.40 0.40 0.40 0.37 0.32 0.26 0.28 0.36 0.50 0.71 0.78 0.70 0.63 0.58 0.60 0.60 0.63 0.78 0.86
0.47 0.58 0.65 0.70 0.72 0.71 0.76 0.82 0.85 0.83 0.75 0.70 0.68 0.66 0.60 0.53 0.44 0.37 0.32 0.23 0.26 0.32 0.32 0.28 0.21 0.17 0.20 0.28 0.44 0.55 0.55 0.56 0.47 0.42 0.41 0.42 0.47 0.48
0.45 0.52 0.57 0.61 0.59 0.59 0.60 0.63 0.66 0.67 0.64 0.61 0.59 0.56 0.49 0.40 0.35 0.30 0.27 0.25 0.27 0.25 0.21 0.17 0.14 0.13 0.15 0.25 0.37 0.43 0.41 0.36 0.33 0.32 0.32 0.29 0.29 0.39
0.42 0.43 0.45 0.48 0.47 0.46 0.46 0.48 0.51 0.54 0.56 0.57 0.54 0.49 0.40 0.34 0.29 0.24 0.19 0.17 0.17 0.16 0.16 0.16 0.13 0.12 0.13 0.16 0.22 0.26 0.26 0.26 0.23 0.23 0.28 0.34 0.35 0.42